223P/Skiff (2010)

Japanese version
Home page
Updated on February 8, 2021

---------------------------------------------------------------------

* Profile

Designation 223P/2009 L18
Recovery Date June 15 and August 18, 2009
Magnitude 20.0 mag, 19.6 mag
Recoverer G. Sostero, E. Guido, P. Camilleri and E. Prosperi (Skylive-Grove Creek Observatory, near Trunkey, NSW, Australia)

* Pictures

* Orbital Elements

Epoch 2010 Sept. 1.0 TT = JDT 2455440.5
T 2010 Aug. 14.51767 TT                                 MPC
q   2.4200690            (2000.0)            P               Q
n   0.11657960     Peri.   37.84792     +0.89340455     -0.43712667
a   4.1500597      Node   346.82455     +0.21199182     +0.61366121
e   0.4168592      Incl.   27.05520     +0.39609062     +0.65752581
P   8.45
From 297 observations 2001 July 27-2010 Dec. 15, mean residual 0".5.

* Finding Charts

* Magnitudes Graph

        m1 = 13.5 + 5 log d + 7.0 log r(t - 150)

---------------------------------------------------------------------

The orbital elements are published on M.P.E.C. 2010-Y12.
The charts are made with StellaNavigator Ver.8 (AstroArts).
The magnitudes graphs are made with Comet for Windows.

---------------------------------------------------------------------

Copyright(C) Seiichi Yoshida (comet@aerith.net). All rights reserved.